Location: ?????????
(54.7630°N, 39.4991°E)
Time: 20:37:20
(UTC+00:00)

Cosmos 2237 - Pass Details

Date: 14 April 2026
Orbit: 846 x 857 km, 70.8° (Epoch: 11 May)

Event Time Altitude Azimuth Distance (km) Brightness Sun altitude
Rises 23:28:42 0° 325° (NW) 3,436 7.7 -20.3°
Reaches altitude 10° 23:31:10 10° 326° (NW) 2,498 6.9 -20.1°
Maximum altitude 23:36:56 89° 52° (NE) 864 4.2 -19.6°
Drops below altitude 10° 23:42:41 10° 148° (SSE) 2,487 6.4 -19.1°
Sets 23:45:07 0° 148° (SSE) 3,420 7.2 -18.9°
